Weather History for Leadville, CO

Change the Weather History Date:

Thursday, February 7, 2013

  Actual Average Record
Temperature  
Mean Temperature 16 °F -  
Max Temperature 36 °F 30 °F 49 °F (1987)
Min Temperature -4 °F 4 °F -31 °F (1989)
Degree Days  
Heating Degree Days 49 48  
Month to date heating degree days 315 336  
Since 1 July heating degree days 6405 6733  
Cooling Degree Days 0 0  
Month to date cooling degree days 0 0  
Year to date cooling degree days 0 0  
Moisture  
Dew Point -1 °F    
Average Humidity 54    
Maximum Humidity 95    
Minimum Humidity 13    
Precipitation  
Precipitation 0.00 in 0.02 in 0.25 in (2004)
Month to date precipitation 0.03 0.16  
Year to date precipitation 0.70 0.78  
Sea Level Pressure  
Sea Level Pressure 30.10 in    
Wind  
Wind Speed 3 mph (NNE)    
Max Wind Speed 14 mph    
Max Gust Speed 17 mph    
Visibility 10 miles    
Events      
T = Trace of Precipitation, MM = Missing Value Source: NWS Daily Summary

Daily Weather History Graph

Daily Weather History Graph

Search for Another Location

Airport:

Trip Planner

Search our weather history database for the weather conditions in past years. The results will help you decide how hot, cold, wet, or windy it might be!

Date:

Astronomy

Feb. 07, 2013 Rise Set
Actual Time 7:05 AM MST 5:33 PM MST
Civil Twilight 6:38 AM MST 6:01 PM MST
Nautical Twilight 6:06 AM MST 6:33 PM MST
Astronomical Twilight 5:35 AM MST 7:04 PM MST
Moon 4:47 AM MST (2/7) 3:01 PM MST (2/7)
Length of Visible Light 11h 23m
Length of Day
10h 27m
Waning Crescent, 8% of the Moon is Illuminated
Feb 7
Waning Crescent
Feb 10
New
Feb 17
First Quarter
Feb 25
Full
Mar 4
Last Quarter

Hourly Weather History & Observations

Time (MST) Temp. Windchill Dew Point Humidity Pressure Visibility Wind Dir Wind Speed Gust Speed Precip Events Conditions
12:16 AM 17.6 °F 7.3 °F 10.4 °F 73% 30.07 in 10.0 mi North 8.1 mph - N/A   Partly Cloudy
12:53 AM 15.1 °F 3.3 °F 8.1 °F 74% 29.97 in 10.0 mi NNE 9.2 mph - N/A   Clear
1:31 AM 12.2 °F 1.7 °F 8.6 °F 85% 30.07 in 10.0 mi NNE 6.9 mph - N/A   Overcast
1:48 AM 12.2 °F 0.7 °F 6.8 °F 79% 30.08 in 10.0 mi NE 8.1 mph - N/A   Overcast
1:53 AM 12.0 °F -0.4 °F 7.0 °F 80% 30.01 in 10.0 mi NE 9.2 mph - N/A   Overcast
2:45 AM 10.4 °F 2.2 °F 6.8 °F 85% 30.08 in 10.0 mi NE 4.6 mph - N/A   Scattered Clouds
2:53 AM 10.0 °F 1.8 °F 6.1 °F 84% 30.04 in 10.0 mi NE 4.6 mph - N/A   Scattered Clouds
3:12 AM 8.6 °F -1.3 °F 5.0 °F 85% 30.07 in 10.0 mi NNE 5.8 mph - N/A   Mostly Cloudy
3:37 AM 6.8 °F -4.8 °F 3.2 °F 85% 30.07 in 10.0 mi NE 6.9 mph - N/A   Scattered Clouds
3:53 AM 6.1 °F -5.6 °F 3.0 °F 87% 30.06 in 10.0 mi NE 6.9 mph - N/A   Clear
4:53 AM 1.9 °F -11.8 °F -0.9 °F 88% 30.12 in 10.0 mi NE 8.1 mph - N/A   Clear
5:53 AM 1.9 °F -9.2 °F -2.9 °F 80% 30.14 in 10.0 mi NE 5.8 mph - N/A   Clear
6:53 AM -0.9 °F -11.0 °F -6.0 °F 79% 30.19 in 10.0 mi NNE 4.6 mph - N/A   Clear
7:53 AM -0.9 °F -11.0 °F -6.0 °F 79% 30.23 in 10.0 mi NNE 4.6 mph - N/A   Clear
8:53 AM 10.0 °F - -0.0 °F 64% 30.17 in 10.0 mi Calm Calm - N/A   Clear
9:53 AM 19.0 °F 13.9 °F 3.9 °F 52% 30.12 in 10.0 mi North 3.5 mph - N/A   Clear
10:53 AM 24.1 °F - -0.9 °F 34% 30.09 in 10.0 mi Calm Calm - N/A   Clear
11:53 AM 30.0 °F - -7.1 °F 20% 30.05 in 10.0 mi Calm Calm - N/A   Clear
12:53 PM 32.0 °F 28.7 °F -9.0 °F 17% 30.03 in 10.0 mi NNW 3.5 mph - N/A   Clear
1:53 PM 30.0 °F - -11.0 °F 17% 30.05 in 10.0 mi Calm Calm - N/A   Clear
2:53 PM 30.9 °F 27.5 °F -8.0 °F 18% 30.04 in 10.0 mi Variable 3.5 mph - N/A   Clear
3:53 PM 33.1 °F 30.0 °F -13.0 °F 13% 30.04 in 10.0 mi NW 3.5 mph - N/A   Clear
4:53 PM 30.0 °F 25.2 °F -8.0 °F 19% 30.09 in 10.0 mi SSE 4.6 mph - N/A   Clear
5:53 PM 25.0 °F - -7.1 °F 24% 30.14 in 10.0 mi Calm Calm - N/A   Clear
6:53 PM 19.0 °F - -6.0 °F 33% 30.21 in 10.0 mi Calm Calm - N/A   Clear
7:53 PM 17.1 °F - -2.9 °F 41% 30.22 in 10.0 mi Calm Calm - N/A   Clear
8:53 PM 12.9 °F - -5.1 °F 45% 30.16 in 10.0 mi Calm Calm - N/A   Clear
9:53 PM 6.1 °F -0.9 °F -6.0 °F 58% 30.15 in 10.0 mi NNE 3.5 mph - N/A   Clear
10:53 PM 12.9 °F - -4.0 °F 47% 30.06 in 10.0 mi Calm Calm - N/A   Clear
11:53 PM 10.0 °F 0.4 °F -4.0 °F 53% 30.04 in 10.0 mi NNE 5.8 mph - N/A   Clear